Tracking 31027 objects as of 19-Jul-2025
HD Live streaming from Space Station
objects crossing your sky now

BREEZE-M DEB

Track BREEZE-M DEB now!
10-day predictions


NORAD ID: 38622
Int'l Code: 2008-011BV
Perigee: 528.3 km
Apogee: 26,411.9 km
Inclination: 49.4 °
Period: 463.6 minutes
Semi major axis: 19841 km
RCS: 0.1286 m2 (medium)
Launch date: March 14, 2008
Source: Commonwealth of Independent States (former USSR) (CIS)
Launch site: TYURATAM MISSILE AND SPACE COMPLEX (TTMTR)

Note: This is SATELLITE DEBRIS
Your satellite tracking list
OBJECT A
Track 1 satellite(s)




NASA's NSSDC Master Catalog

Two Line Element Set (TLE):
1 38622U 08011BV  25195.90678930  .00000121  00000-0  10390-2 0  9994
2 38622  49.4372   7.1056 6522724 216.3698  73.5924  3.10638148154873
Source of the keplerian elements: AFSPC